Location: Newark
(48.8604°N, 2.3376°E)
Time: 16:08:16
(UTC+00:00)

Envisat - Pass Details

Date: 01 October 2021
Orbit: 764 x 766 km, 98.2° (Epoch: 18 October)

Event Time Altitude Azimuth Distance (km) Brightness Sun altitude
Rises 05:12:08 0° 13° (NNE) 3,243 6.5 -7.1°
Reaches altitude 10° 05:14:27 10° 14° (NNE) 2,313 5.7 -6.7°
Maximum altitude 05:19:34 90° 283° (WNW) 772 3.1 -5.9°
Drops below altitude 10° 05:24:38 10° 196° (SSW) 2,295 5.3 -5.1°
Sets 05:26:56 0° 196° (SSW) 3,217 6.1 -4.7°
